• In Hungary
  • List of Countries
  • For 7 days
  • Water Temperature
  • Satellite Maps
  • Weather Map
  • News
  • Weather Widgets
  • user-avatar
    Login

    Hourly Weather Grudki

    Today, 24 October, Wednesday

    Time Temperature Precipitation Wind Pressure Humidity
    00:00 +3°C° 0.1 mm 5 mps 721 mmHg 90%
    01:00 +5°C° 0.1 mm 5 mps 721 mmHg 90%
    02:00 +5°C° 0.1 mm 5 mps 720 mmHg 90%
    03:00 +5°C° 0.1 mm 5 mps 720 mmHg 90%
    04:00 +3°C° 0.1 mm 5 mps 719 mmHg 89%
    05:00 +3°C° 0.1 mm 5 mps 719 mmHg 89%
    06:00 +3°C° 0.2 mm 5 mps 719 mmHg 88%
    07:00 +3°C° 0.2 mm 5 mps 719 mmHg 87%
    08:00 +3°C° 0.2 mm 5 mps 719 mmHg 86%
    09:00 +3°C° 0.2 mm 5 mps 719 mmHg 85%
    10:00 +5°C° 0.2 mm 5 mps 719 mmHg 84%
    11:00 +5°C° 0.2 mm 5 mps 719 mmHg 83%
    12:00 +5°C° 0.4 mm 5 mps 719 mmHg 83%
    13:00 +5°C° 0.4 mm 5 mps 720 mmHg 83%
    14:00 +5°C° 0.4 mm 4 mps 720 mmHg 83%
    15:00 +5°C° 0.2 mm 5 mps 721 mmHg 84%
    16:00 +5°C° 0.2 mm 5 mps 721 mmHg 85%
    17:00 +4°C° 0.2 mm 6 mps 722 mmHg 86%
    18:00 +4°C° 0.5 mm 6 mps 723 mmHg 85%
    19:00 +3°C° 0.5 mm 7 mps 724 mmHg 85%
    20:00 +3°C° 0.5 mm 7 mps 726 mmHg 84%
    21:00 +3°C° 0.2 mm 7 mps 727 mmHg 83%
    22:00 +3°C° 0.2 mm 7 mps 727 mmHg 83%
    23:00 +2°C° 0.2 mm 7 mps 728 mmHg 82%

    Tomorrow, 25 October, Thursday

    Time Temperature Precipitation Wind Pressure Humidity
    00:00 +2°C° 0 mm 7 mps 729 mmHg 83%
    01:00 0°C° 0 mm 7 mps 730 mmHg 84%
    02:00 +1°C° 0 mm 6 mps 730 mmHg 85%
    03:00 +1°C° 0 mm 6 mps 731 mmHg 85%
    04:00 +1°C° 0 mm 6 mps 731 mmHg 86%
    05:00 +1°C° 0 mm 6 mps 731 mmHg 87%
    06:00 +1°C° 0 mm 5 mps 731 mmHg 86%
    07:00 +1°C° 0 mm 5 mps 732 mmHg 86%
    08:00 +1°C° 0 mm 5 mps 732 mmHg 86%
    09:00 +3°C° 0 mm 4 mps 732 mmHg 83%
    10:00 +3°C° 0 mm 4 mps 731 mmHg 80%
    11:00 +4°C° 0 mm 4 mps 731 mmHg 77%
    12:00 +4°C° 0.1 mm 4 mps 731 mmHg 75%
    13:00 +5°C° 0.1 mm 4 mps 730 mmHg 74%
    14:00 +5°C° 0.1 mm 4 mps 730 mmHg 72%
    15:00 +4°C° 0.2 mm 3 mps 729 mmHg 75%
    16:00 +4°C° 0.2 mm 3 mps 729 mmHg 79%
    17:00 +4°C° 0.2 mm 2 mps 728 mmHg 82%
    18:00 +4°C° 0.1 mm 2 mps 728 mmHg 84%
    19:00 +4°C° 0.1 mm 1 mps 728 mmHg 86%
    20:00 +4°C° 0.1 mm 1 mps 728 mmHg 88%
    21:00 +4°C° 0 mm 1 mps 728 mmHg 89%
    22:00 +4°C° 0 mm 1 mps 728 mmHg 90%
    23:00 +3°C° 0 mm 1 mps 729 mmHg 90%

    Day after tomorrow, 26 October, Friday

    Time Temperature Precipitation Wind Pressure Humidity
    00:00 +3°C° 0 mm 1 mps 729 mmHg 91%
    01:00 +2°C° 0 mm 2 mps 730 mmHg 92%
    02:00 +1°C° 0 mm 2 mps 730 mmHg 93%
    03:00 +1°C° 0 mm 2 mps 731 mmHg 94%
    04:00 +1°C° 0 mm 2 mps 731 mmHg 94%
    05:00 +1°C° 0 mm 2 mps 731 mmHg 94%
    06:00 +1°C° 0 mm 2 mps 732 mmHg 94%
    07:00 +2°C° 0 mm 2 mps 732 mmHg 93%
    08:00 +2°C° 0 mm 2 mps 732 mmHg 93%
    09:00 +2°C° 0 mm 3 mps 733 mmHg 90%
    10:00 +3°C° 0 mm 3 mps 733 mmHg 88%
    11:00 +4°C° 0 mm 3 mps 733 mmHg 85%
    12:00 +4°C° 0 mm 3 mps 733 mmHg 83%
    13:00 +4°C° 0 mm 4 mps 733 mmHg 82%
    14:00 +5°C° 0 mm 4 mps 733 mmHg 81%
    15:00 +5°C° 0 mm 3 mps 733 mmHg 83%
    16:00 +4°C° 0 mm 3 mps 733 mmHg 85%
    17:00 +4°C° 0 mm 3 mps 733 mmHg 87%
    18:00 +4°C° 0.1 mm 3 mps 733 mmHg 88%
    19:00 +4°C° 0.1 mm 4 mps 733 mmHg 88%
    20:00 +3°C° 0.1 mm 5 mps 732 mmHg 88%
    21:00 +3°C° 0.8 mm 6 mps 732 mmHg 88%
    22:00 +3°C° 0.8 mm 6 mps 731 mmHg 87%
    23:00 +4°C° 0.8 mm 7 mps 730 mmHg 86%

    27 October, Saturday

    Time Temperature Precipitation Wind Pressure Humidity
    00:00 +4°C° 0.2 mm 7 mps 729 mmHg 87%
    01:00 +5°C° 0.2 mm 7 mps 729 mmHg 88%
    02:00 +5°C° 0.2 mm 8 mps 728 mmHg 89%
    03:00 +6°C° 0.4 mm 8 mps 727 mmHg 87%
    04:00 +6°C° 0.4 mm 8 mps 727 mmHg 86%
    05:00 +6°C° 0.4 mm 8 mps 726 mmHg 85%
    06:00 +6°C° 0.5 mm 8 mps 726 mmHg 83%
    07:00 +5°C° 0.5 mm 8 mps 726 mmHg 82%
    08:00 +5°C° 0.5 mm 8 mps 727 mmHg 80%
    09:00 +5°C° 0.1 mm 8 mps 727 mmHg 79%
    10:00 +5°C° 0.1 mm 8 mps 728 mmHg 78%
    11:00 +4°C° 0.1 mm 8 mps 729 mmHg 77%
    12:00 +5°C° 0.1 mm 8 mps 730 mmHg 76%
    13:00 +5°C° 0.1 mm 7 mps 731 mmHg 75%
    14:00 +5°C° 0.1 mm 7 mps 732 mmHg 74%
    15:00 +4°C° 0.1 mm 6 mps 733 mmHg 76%
    16:00 +3°C° 0.1 mm 5 mps 734 mmHg 78%
    17:00 +4°C° 0.1 mm 4 mps 735 mmHg 81%
    18:00 +3°C° 0 mm 3 mps 735 mmHg 84%
    19:00 +2°C° 0 mm 3 mps 736 mmHg 87%
    20:00 +3°C° 0 mm 2 mps 737 mmHg 90%
    21:00 +3°C° 0 mm 2 mps 738 mmHg 91%
    22:00 +2°C° 0 mm 2 mps 738 mmHg 91%
    23:00 +3°C° 0 mm 1 mps 739 mmHg 92%

    28 October, Sunday

    Time Temperature Precipitation Wind Pressure Humidity
    00:00 +3°C° 0 mm 1 mps 740 mmHg 92%
    01:00 +2°C° 0 mm 1 mps 740 mmHg 92%
    02:00 +2°C° 0 mm 1 mps 741 mmHg 93%
    03:00 +2°C° 0 mm 1 mps 741 mmHg 92%
    04:00 +2°C° 0 mm 1 mps 742 mmHg 92%
    05:00 +2°C° 0 mm 1 mps 743 mmHg 92%
    06:00 +2°C° 0 mm 1 mps 743 mmHg 92%
    07:00 +2°C° 0 mm 1 mps 744 mmHg 92%
    08:00 +2°C° 0 mm 1 mps 745 mmHg 92%
    09:00 +3°C° 0 mm 1 mps 745 mmHg 86%
    10:00 +4°C° 0 mm 1 mps 746 mmHg 81%
    11:00 +5°C° 0 mm 1 mps 746 mmHg 76%
    12:00 +6°C° 0 mm 1 mps 747 mmHg 73%
    13:00 +6°C° 0 mm 1 mps 747 mmHg 70%
    14:00 +7°C° 0 mm 1 mps 747 mmHg 67%
    15:00 +6°C° 0 mm 1 mps 747 mmHg 71%
    16:00 +5°C° 0 mm 1 mps 748 mmHg 75%
    17:00 +3°C° 0 mm 2 mps 748 mmHg 79%
    18:00 +3°C° 0 mm 2 mps 748 mmHg 79%
    19:00 +3°C° 0 mm 2 mps 748 mmHg 79%
    20:00 +3°C° 0 mm 2 mps 749 mmHg 79%
    21:00 +3°C° 0 mm 2 mps 749 mmHg 80%
    22:00 +3°C° 0 mm 2 mps 749 mmHg 80%
    23:00 +1°C° 0 mm 3 mps 749 mmHg 81%

    29 October, Monday

    Time Temperature Precipitation Wind Pressure Humidity
    00:00 +1°C° 0.1 mm 3 mps 749 mmHg 81%
    01:00 +1°C° 0.1 mm 3 mps 749 mmHg 80%
    02:00 +1°C° 0.1 mm 3 mps 749 mmHg 80%
    03:00 0°C° 0.1 mm 4 mps 749 mmHg 80%
    04:00 0°C° 0.1 mm 4 mps 748 mmHg 79%
    05:00 0°C° 0.1 mm 4 mps 748 mmHg 79%
    06:00 0°C° 0.2 mm 5 mps 748 mmHg 79%
    07:00 0°C° 0.2 mm 5 mps 747 mmHg 80%
    08:00 -1°C° 0.2 mm 6 mps 747 mmHg 80%
    09:00 -1°C° 0.8 mm 6 mps 747 mmHg 82%
    10:00 -1°C° 0.8 mm 7 mps 747 mmHg 84%
    11:00 -1°C° 0.8 mm 7 mps 746 mmHg 86%
    12:00 -1°C° 1.2 mm 7 mps 746 mmHg 87%
    13:00 -1°C° 1.2 mm 8 mps 745 mmHg 89%
    14:00 -1°C° 1.2 mm 8 mps 745 mmHg 90%
    15:00 -1°C° 1.3 mm 8 mps 744 mmHg 91%
    16:00 -2°C° 1.3 mm 8 mps 744 mmHg 91%
    17:00 -2°C° 1.3 mm 8 mps 743 mmHg 92%
    18:00 -2°C° 1.1 mm 8 mps 743 mmHg 92%
    19:00 -2°C° 1.1 mm 7 mps 743 mmHg 93%
    20:00 -2°C° 1.1 mm 7 mps 743 mmHg 93%
    21:00 -2°C° 0.5 mm 7 mps 743 mmHg 93%
    22:00 -1°C° 0.5 mm 7 mps 742 mmHg 94%
    23:00 -1°C° 0.5 mm 7 mps 742 mmHg 94%

    30 October, Tuesday

    Time Temperature Precipitation Wind Pressure Humidity
    00:00 -1°C° 1 mm 7 mps 742 mmHg 94%
    01:00 -1°C° 1 mm 6 mps 742 mmHg 95%
    02:00 -1°C° 1 mm 6 mps 741 mmHg 95%
    03:00 -1°C° 1.7 mm 6 mps 741 mmHg 96%
    04:00 0°C° 1.7 mm 5 mps 741 mmHg 96%
    05:00 0°C° 1.7 mm 5 mps 741 mmHg 97%
    06:00 0°C° 0.3 mm 5 mps 742 mmHg 97%
    07:00 0°C° 0.3 mm 5 mps 742 mmHg 96%
    08:00 +1°C° 0.3 mm 5 mps 742 mmHg 96%
    09:00 +1°C° 0 mm 5 mps 743 mmHg 96%
    10:00 +1°C° 0 mm 5 mps 743 mmHg 96%
    11:00 +1°C° 0 mm 5 mps 743 mmHg 96%
    12:00 +2°C° 0 mm 5 mps 743 mmHg 95%
    13:00 +2°C° 0 mm 5 mps 744 mmHg 95%
    14:00 +3°C° 0 mm 5 mps 744 mmHg 95%
    15:00 +3°C° 0 mm 5 mps 744 mmHg 95%
    16:00 +3°C° 0 mm 5 mps 743 mmHg 95%
    17:00 +3°C° 0 mm 6 mps 743 mmHg 95%
    18:00 +3°C° 0 mm 6 mps 744 mmHg 95%
    19:00 +4°C° 0 mm 6 mps 744 mmHg 94%
    20:00 +4°C° 0 mm 6 mps 744 mmHg 94%
    21:00 +5°C° 0 mm 7 mps 744 mmHg 94%
    22:00 +5°C° 0 mm 7 mps 743 mmHg 93%
    23:00 +5°C° 0 mm 7 mps 743 mmHg 93%
    Show more